TITAN 3C TRANSTAGE DEB, 26049

Orbit data source: Space-Track

TITAN 3C TRANSTAGE DEB, 26049 is space debris in HEO originally from a launch on Tue, 21 Dec 1965 UTC launched from the Air Force Eastern Test Range (AFETR). Debris objects in space refer to the collection of defunct objects orbiting the Earth. Examples of debris include non-operational satellites, rocket bodies, and fragments generated from explosions, collisions, or faulty payload assembly.

Loading next visibility...
Identifier
26049, 1965-108AH
Orbit
HEO
Country
Flag of USUS
Related business
Manufacturer
Unknown
Mission
Spacecraft
Bus & Motor
Unknown
Mass
Unknown
Launch date (UTC)
1965-12-21 (60 years ago)
Launch vehicle
Unknown
Launch site
Air Force Eastern Test Range (AFETR)
Object type
Payload
Rocket body
Debris
Shape & HBR
Unknown shape, 0.1 m
Radar Cross Section
Small (<0.1 m²)

Expand to show TLE details & history
Last TLE update: 12 hours ago

TLE from 12 hours ago
0 TITAN 3C TRANSTAGE DEB
1 26049U 65108AH  26121.49832731  .00015312  00000-0  12584-1 0  9993
2 26049  27.2244 249.8185 4738730 130.4236 281.7409  5.88194468107453
Epoch: 2026-05-01T11:57Z
TLE epoch observation values (Epoch: 2026-05-01T11:57:35.479Z)
Latitude
0.00002°
Longitude
-149.03379°
Altitude
8,130.688 km
Speed
4.92 km/s
True Right ascension
16h 39m 10s
True Declination
0° 00' 00"
Sunlit
Object was in daylight at epoch
Visualization orbit readout
Latitude
Unknown
Longitude
Unknown
Altitude
Unknown
Speed
Unknown
Apparent Right ascension
Unknown
Apparent Declination
Unknown
Sunlit
N/A
Visualization observer readout
Local Sidereal Time
07:36:43
Azimuth
Unknown
Elevation
Unknown
Doppler factor
Unknown
Orbital elements
Apogee altitude
12,733.413 km
Perigee altitude
444.094 km
Semi-major axis
12,966.891 km
Eccentricity
0.47387
Inclination
27.2244°
RAAN
249.8185°
Arg. of periapsis
130.4236°
True anomaly
229.61965°
Mean anomaly
281.7409°
Eccentric anomaly
255.4596°
Mean motion
1.46991 °/min
Orbital period
244.91 mins
BSTAR
0.012584
Loading maneuver chart data...
Computing Atmospheric mass density...

Documentation

Showing up to 5 results
|